Year,Month,Day,Hour,Minute,Value (Times are PST for temperature in C)
2014,10,11,00,00,12.80
2014,10,11,00,01,12.80
2014,10,11,00,02,12.80
2014,10,11,00,03,12.80
2014,10,11,00,04,12.80
2014,10,11,00,05,12.80
2014,10,11,00,06,12.80
2014,10,11,00,07,12.80
2014,10,11,00,08,12.70
2014,10,11,00,09,12.70
2014,10,11,00,10,12.70
2014,10,11,00,11,12.70
2014,10,11,00,12,12.70
2014,10,11,00,13,12.70
2014,10,11,00,14,12.70
2014,10,11,00,15,12.70
2014,10,11,00,16,12.70
2014,10,11,00,17,12.70
2014,10,11,00,18,12.70
2014,10,11,00,19,12.70
2014,10,11,00,20,12.60
2014,10,11,00,21,12.60
2014,10,11,00,22,12.60
2014,10,11,00,23,12.60
2014,10,11,00,24,12.60
2014,10,11,00,25,12.60
2014,10,11,00,26,12.70
2014,10,11,00,27,12.70
2014,10,11,00,28,12.70
2014,10,11,00,29,12.70
2014,10,11,00,30,12.70
2014,10,11,00,31,12.70
2014,10,11,00,32,12.70
2014,10,11,00,33,12.70
2014,10,11,00,34,12.70
2014,10,11,00,35,12.70
2014,10,11,00,36,12.70
2014,10,11,00,37,12.70
2014,10,11,00,38,12.70
2014,10,11,00,39,12.70
2014,10,11,00,40,12.70
2014,10,11,00,41,12.70
2014,10,11,00,42,12.70
2014,10,11,00,43,12.80
2014,10,11,00,44,12.80
2014,10,11,00,45,12.80
2014,10,11,00,46,12.80
2014,10,11,00,47,12.80
2014,10,11,00,48,12.80
2014,10,11,00,49,12.80
2014,10,11,00,50,12.80
2014,10,11,00,51,12.80
2014,10,11,00,52,12.80
2014,10,11,00,53,12.70
2014,10,11,00,54,12.70
2014,10,11,00,55,12.70
2014,10,11,00,56,12.70
2014,10,11,00,57,12.70
2014,10,11,00,58,12.70
2014,10,11,00,59,12.70
2014,10,11,01,00,12.70
2014,10,11,01,01,12.70
2014,10,11,01,02,12.70
2014,10,11,01,03,12.60
2014,10,11,01,04,12.70
2014,10,11,01,05,12.70
2014,10,11,01,06,12.80
2014,10,11,01,07,12.80
2014,10,11,01,08,12.90
2014,10,11,01,09,12.90
2014,10,11,01,10,12.90
2014,10,11,01,11,12.90
2014,10,11,01,12,12.90
2014,10,11,01,13,12.90
2014,10,11,01,14,12.90
2014,10,11,01,15,12.90
2014,10,11,01,16,12.90
2014,10,11,01,17,12.90
2014,10,11,01,18,12.90
2014,10,11,01,19,12.90
2014,10,11,01,20,12.90
2014,10,11,01,21,12.90
2014,10,11,01,22,12.90
2014,10,11,01,23,12.90
2014,10,11,01,24,12.90
2014,10,11,01,25,12.90
2014,10,11,01,26,13.00
2014,10,11,01,27,13.00
2014,10,11,01,28,13.00
2014,10,11,01,29,12.90
2014,10,11,01,30,12.90
2014,10,11,01,31,12.90
2014,10,11,01,32,12.90
2014,10,11,01,33,12.90
2014,10,11,01,34,12.80
2014,10,11,01,35,12.80
2014,10,11,01,36,12.80
2014,10,11,01,37,12.80
2014,10,11,01,38,12.70
2014,10,11,01,39,12.70
2014,10,11,01,40,12.70
2014,10,11,01,41,12.60
2014,10,11,01,42,12.60
2014,10,11,01,43,12.60
2014,10,11,01,44,12.50
2014,10,11,01,45,12.40
2014,10,11,01,46,12.40
2014,10,11,01,47,12.30
2014,10,11,01,48,12.30
2014,10,11,01,49,12.20
2014,10,11,01,50,12.20
2014,10,11,01,51,12.10
2014,10,11,01,52,12.10
2014,10,11,01,53,12.10
2014,10,11,01,54,12.00
2014,10,11,01,55,12.00
2014,10,11,01,56,12.00
2014,10,11,01,57,11.90
2014,10,11,01,58,11.90
2014,10,11,01,59,11.90
2014,10,11,02,00,11.90
2014,10,11,02,01,11.90
2014,10,11,02,02,11.90
2014,10,11,02,03,11.90
2014,10,11,02,04,11.90
2014,10,11,02,05,11.90
2014,10,11,02,06,11.90
2014,10,11,02,07,11.90
2014,10,11,02,08,11.90
2014,10,11,02,09,11.80
2014,10,11,02,10,11.80
2014,10,11,02,11,11.80
2014,10,11,02,12,11.70
2014,10,11,02,13,11.80
2014,10,11,02,14,11.80
2014,10,11,02,15,11.80
2014,10,11,02,16,11.70
2014,10,11,02,17,11.70
2014,10,11,02,18,11.70
2014,10,11,02,19,11.70
2014,10,11,02,20,11.70
2014,10,11,02,21,11.70
2014,10,11,02,22,11.60
2014,10,11,02,23,11.60
2014,10,11,02,24,11.60
2014,10,11,02,25,11.60
2014,10,11,02,26,11.50
2014,10,11,02,27,11.50
2014,10,11,02,28,11.50
2014,10,11,02,29,11.40
2014,10,11,02,30,11.40
2014,10,11,02,31,11.50
2014,10,11,02,32,11.50
2014,10,11,02,33,11.50
2014,10,11,02,34,11.50
2014,10,11,02,35,11.40
2014,10,11,02,36,11.40
2014,10,11,02,37,11.40
2014,10,11,02,38,11.40
2014,10,11,02,39,11.40
2014,10,11,02,40,11.40
2014,10,11,02,41,11.40
2014,10,11,02,42,11.40
2014,10,11,02,43,11.40
2014,10,11,02,44,11.30
2014,10,11,02,45,11.30
2014,10,11,02,46,11.30
2014,10,11,02,47,11.30
2014,10,11,02,48,11.30
2014,10,11,02,49,11.30
2014,10,11,02,50,11.20
2014,10,11,02,51,11.20
2014,10,11,02,52,11.20
2014,10,11,02,53,11.20
2014,10,11,02,54,11.20
2014,10,11,02,55,11.20
2014,10,11,02,56,11.20
2014,10,11,02,57,11.10
2014,10,11,02,58,11.10
2014,10,11,02,59,11.10
2014,10,11,03,00,11.10
2014,10,11,03,01,11.10
2014,10,11,03,02,11.10
2014,10,11,03,06,11.10
2014,10,11,03,07,11.00
2014,10,11,03,08,11.00
2014,10,11,03,09,11.00
2014,10,11,03,10,11.00
2014,10,11,03,11,11.00
2014,10,11,03,12,11.00
2014,10,11,03,13,11.00
2014,10,11,03,14,11.00
2014,10,11,03,15,10.90
2014,10,11,03,16,10.90
2014,10,11,03,17,10.90
2014,10,11,03,18,10.90
2014,10,11,03,19,10.90
2014,10,11,03,20,10.90
2014,10,11,03,21,10.90
2014,10,11,03,22,10.90
2014,10,11,03,23,10.90
2014,10,11,03,24,10.90
2014,10,11,03,25,10.90
2014,10,11,03,26,10.90
2014,10,11,03,27,10.90
2014,10,11,03,28,10.90
2014,10,11,03,29,10.90
2014,10,11,03,30,10.90
2014,10,11,03,31,10.90
2014,10,11,03,32,10.90
2014,10,11,03,33,10.90
2014,10,11,03,34,10.90
2014,10,11,03,35,10.90
2014,10,11,03,36,10.90
2014,10,11,03,37,10.90
2014,10,11,03,38,10.90
2014,10,11,03,39,10.90
2014,10,11,03,40,10.90
2014,10,11,03,41,11.00
2014,10,11,03,42,11.00
2014,10,11,03,43,11.00
2014,10,11,03,44,11.00
2014,10,11,03,45,11.00
2014,10,11,03,46,11.00
2014,10,11,03,47,11.00
2014,10,11,03,48,11.10
2014,10,11,03,49,11.10
2014,10,11,03,50,11.10
2014,10,11,03,51,11.10
2014,10,11,03,52,11.10
2014,10,11,03,53,11.10
2014,10,11,03,54,11.20
2014,10,11,03,55,11.20
2014,10,11,03,56,11.20
2014,10,11,03,57,11.20
2014,10,11,03,58,11.20
2014,10,11,03,59,11.20
2014,10,11,04,00,11.20
2014,10,11,04,01,11.20
2014,10,11,04,02,11.20
2014,10,11,04,03,11.10
2014,10,11,04,04,11.10
2014,10,11,04,05,11.10
2014,10,11,04,06,11.10
2014,10,11,04,07,11.10
2014,10,11,04,08,11.10
2014,10,11,04,09,11.10
2014,10,11,04,10,11.10
2014,10,11,04,11,11.20
2014,10,11,04,12,11.20
2014,10,11,04,13,11.10
2014,10,11,04,14,11.10
2014,10,11,04,15,11.10
2014,10,11,04,16,11.10
2014,10,11,04,17,11.10
2014,10,11,04,18,11.10
2014,10,11,04,19,11.10
2014,10,11,04,20,11.10
2014,10,11,04,21,11.10
2014,10,11,04,22,11.10
2014,10,11,04,23,11.10
2014,10,11,04,24,11.10
2014,10,11,04,25,11.10
2014,10,11,04,26,11.10
2014,10,11,04,27,11.10
2014,10,11,04,28,11.10
2014,10,11,04,29,11.10
2014,10,11,04,30,11.10
2014,10,11,04,31,11.10
2014,10,11,04,32,11.10
2014,10,11,04,33,11.00
2014,10,11,04,34,11.00
2014,10,11,04,35,11.00
2014,10,11,04,36,11.00
2014,10,11,04,37,11.00
2014,10,11,04,38,11.00
2014,10,11,04,39,10.90
2014,10,11,04,40,10.90
2014,10,11,04,41,10.90
2014,10,11,04,42,10.90
2014,10,11,04,43,10.90
2014,10,11,04,44,10.90
2014,10,11,04,45,10.90
2014,10,11,04,46,10.90
2014,10,11,04,47,10.90
2014,10,11,04,48,10.90
2014,10,11,04,49,10.90
2014,10,11,04,50,10.90
2014,10,11,04,51,10.90
2014,10,11,04,52,10.90
2014,10,11,04,53,10.90
2014,10,11,04,54,10.90
2014,10,11,04,55,10.90
2014,10,11,04,56,10.90
2014,10,11,04,57,10.90
2014,10,11,04,58,10.90
2014,10,11,04,59,11.00
2014,10,11,05,00,11.20
2014,10,11,05,01,11.30
2014,10,11,05,02,11.30
2014,10,11,05,03,11.30
2014,10,11,05,04,11.40
2014,10,11,05,05,11.40
2014,10,11,05,06,11.50
2014,10,11,05,07,11.50
2014,10,11,05,08,11.60
2014,10,11,05,09,11.60
2014,10,11,05,10,11.60
2014,10,11,05,11,11.60
2014,10,11,05,12,11.70
2014,10,11,05,13,11.70
2014,10,11,05,14,11.80
2014,10,11,05,15,11.90
2014,10,11,05,16,11.90
2014,10,11,05,17,12.00
2014,10,11,05,18,12.10
2014,10,11,05,19,12.20
2014,10,11,05,20,12.20
2014,10,11,05,21,12.30
2014,10,11,05,22,12.40
2014,10,11,05,23,12.40
2014,10,11,05,24,12.50
2014,10,11,05,25,12.60
2014,10,11,05,26,12.60
2014,10,11,05,27,12.60
2014,10,11,05,28,12.70
2014,10,11,05,29,12.70
2014,10,11,05,30,12.70
2014,10,11,05,31,12.70
2014,10,11,05,32,12.70
2014,10,11,05,33,12.80
2014,10,11,05,34,12.80
2014,10,11,05,35,12.80
2014,10,11,05,36,12.80
2014,10,11,05,37,12.80
2014,10,11,05,38,12.80
2014,10,11,05,39,12.80
2014,10,11,05,40,12.80
2014,10,11,05,41,12.80
2014,10,11,05,42,12.80
2014,10,11,05,43,12.80
2014,10,11,05,44,12.80
2014,10,11,05,45,12.80
2014,10,11,05,46,12.80
2014,10,11,05,47,12.90
2014,10,11,05,48,12.90
2014,10,11,05,49,12.90
2014,10,11,05,50,12.90
2014,10,11,05,51,12.90
2014,10,11,05,52,12.90
2014,10,11,05,53,12.90
2014,10,11,05,54,13.00
2014,10,11,05,55,13.00
2014,10,11,05,56,13.00
2014,10,11,05,57,13.00
2014,10,11,05,58,13.00
2014,10,11,05,59,13.10
2014,10,11,06,00,13.10
2014,10,11,06,01,13.10
2014,10,11,06,02,13.10
2014,10,11,06,03,13.10
2014,10,11,06,04,13.10
2014,10,11,06,05,13.00
2014,10,11,06,06,13.00
2014,10,11,06,07,13.00
2014,10,11,06,08,13.00
2014,10,11,06,09,12.90
2014,10,11,06,10,12.90
2014,10,11,06,11,12.90
2014,10,11,06,12,12.90
2014,10,11,06,13,12.80
2014,10,11,06,14,12.80
2014,10,11,06,15,12.80
2014,10,11,06,16,12.80
2014,10,11,06,17,12.80
2014,10,11,06,18,12.80
2014,10,11,06,19,12.80
2014,10,11,06,20,12.80
2014,10,11,06,21,12.80
2014,10,11,06,22,12.80
2014,10,11,06,23,12.80
2014,10,11,06,24,12.80
2014,10,11,06,25,12.80
2014,10,11,06,26,12.80
2014,10,11,06,27,12.90
2014,10,11,06,28,12.90
2014,10,11,06,29,12.90
2014,10,11,06,30,12.90
2014,10,11,06,31,12.90
2014,10,11,06,32,12.90
2014,10,11,06,33,13.00
2014,10,11,06,34,13.00
2014,10,11,06,35,13.00
2014,10,11,06,36,13.00
2014,10,11,06,37,13.00
2014,10,11,06,38,13.10
2014,10,11,06,39,13.10
2014,10,11,06,40,13.10
2014,10,11,06,41,13.10
2014,10,11,06,42,13.10
2014,10,11,06,43,13.00
2014,10,11,06,44,13.00
2014,10,11,06,45,13.00
2014,10,11,06,46,12.90
2014,10,11,06,47,12.90
2014,10,11,06,48,12.90
2014,10,11,06,49,12.90
2014,10,11,06,50,12.80
2014,10,11,06,51,12.80
2014,10,11,06,52,12.80
2014,10,11,06,53,12.80
2014,10,11,06,54,12.70
2014,10,11,06,55,12.70
2014,10,11,06,56,12.70
2014,10,11,06,57,12.60
2014,10,11,06,58,12.60
2014,10,11,06,59,12.60
2014,10,11,07,00,12.60
2014,10,11,07,01,12.70
2014,10,11,07,02,12.70
2014,10,11,07,03,12.70
2014,10,11,07,04,12.70
2014,10,11,07,05,12.80
2014,10,11,07,06,12.80
2014,10,11,07,07,12.80
2014,10,11,07,08,12.80
2014,10,11,07,09,12.80
2014,10,11,07,10,13.00
2014,10,11,07,11,13.10
2014,10,11,07,12,13.20
2014,10,11,07,13,13.20
2014,10,11,07,14,13.30
2014,10,11,07,15,13.30
2014,10,11,07,16,13.30
2014,10,11,07,17,13.40
2014,10,11,07,18,13.40
2014,10,11,07,19,13.40
2014,10,11,07,20,13.40
2014,10,11,07,21,13.50
2014,10,11,07,22,13.50
2014,10,11,07,23,13.50
2014,10,11,07,24,13.50
2014,10,11,07,25,13.50
2014,10,11,07,26,13.50
2014,10,11,07,27,13.50
2014,10,11,07,28,13.50
2014,10,11,07,29,13.50
2014,10,11,07,30,13.50
2014,10,11,07,31,13.50
2014,10,11,07,32,13.50
2014,10,11,07,33,13.50
2014,10,11,07,34,13.40
2014,10,11,07,35,13.40
2014,10,11,07,36,13.40
2014,10,11,07,37,13.40
2014,10,11,07,38,13.40
2014,10,11,07,39,13.40
2014,10,11,07,40,13.30
2014,10,11,07,41,13.40
2014,10,11,07,42,13.30
2014,10,11,07,43,13.30
2014,10,11,07,44,13.30
2014,10,11,07,45,13.30
2014,10,11,07,46,13.30
2014,10,11,07,47,13.30
2014,10,11,07,48,13.30
2014,10,11,07,49,13.30
2014,10,11,07,50,13.30
2014,10,11,07,51,13.30
2014,10,11,07,52,13.30
2014,10,11,07,53,13.40
2014,10,11,07,54,13.40
2014,10,11,07,55,13.40
2014,10,11,07,56,13.40
2014,10,11,07,57,13.50
2014,10,11,07,58,13.50
2014,10,11,07,59,13.50
2014,10,11,08,00,13.60
2014,10,11,08,01,13.60
2014,10,11,08,02,13.70
2014,10,11,08,03,13.70
2014,10,11,08,04,13.70
2014,10,11,08,05,13.70
2014,10,11,08,06,13.80
2014,10,11,08,07,13.80
2014,10,11,08,08,13.80
2014,10,11,08,09,13.90
2014,10,11,08,10,13.90
2014,10,11,08,11,13.90
2014,10,11,08,12,13.90
2014,10,11,08,13,13.90
2014,10,11,08,14,13.90
2014,10,11,08,15,13.90
2014,10,11,08,16,13.90
2014,10,11,08,17,13.90
2014,10,11,08,18,13.90
2014,10,11,08,19,13.90
2014,10,11,08,20,13.90
2014,10,11,08,21,13.80
2014,10,11,08,22,13.80
2014,10,11,08,23,13.80
2014,10,11,08,24,13.80
2014,10,11,08,25,13.80
2014,10,11,08,26,13.80
2014,10,11,08,27,13.80
2014,10,11,08,28,13.80
2014,10,11,08,29,13.80
2014,10,11,08,30,13.80
2014,10,11,08,31,13.90
2014,10,11,08,32,13.80
2014,10,11,08,33,13.80
2014,10,11,08,34,13.80
2014,10,11,08,35,13.80
2014,10,11,08,36,13.80
2014,10,11,08,37,13.80
2014,10,11,08,38,13.80
2014,10,11,08,39,13.80
2014,10,11,08,40,13.80
2014,10,11,08,41,13.80
2014,10,11,08,42,13.80
2014,10,11,08,43,13.80
2014,10,11,08,44,13.80
2014,10,11,08,45,13.80
2014,10,11,08,46,13.80
2014,10,11,08,47,13.80
2014,10,11,08,48,13.80
2014,10,11,08,49,13.80
2014,10,11,08,50,13.80
2014,10,11,08,51,13.80
2014,10,11,08,52,13.80
2014,10,11,08,53,13.80
2014,10,11,08,54,13.80
2014,10,11,08,55,13.80
2014,10,11,08,56,13.80
2014,10,11,08,57,13.70
2014,10,11,08,58,13.70
2014,10,11,08,59,13.70
2014,10,11,09,00,13.70
2014,10,11,09,01,13.70
2014,10,11,09,02,13.70
2014,10,11,09,03,13.70
2014,10,11,09,04,13.60
2014,10,11,09,05,13.60
2014,10,11,09,06,13.60
2014,10,11,09,07,13.60
2014,10,11,09,08,13.60
2014,10,11,09,09,13.60
2014,10,11,09,10,13.50
2014,10,11,09,11,13.50
2014,10,11,09,12,13.40
2014,10,11,09,13,13.40
2014,10,11,09,14,13.30
2014,10,11,09,15,13.30
2014,10,11,09,16,13.30
2014,10,11,09,17,13.30
2014,10,11,09,18,13.20
2014,10,11,09,19,13.20
2014,10,11,09,20,13.20
2014,10,11,09,21,13.20
2014,10,11,09,22,13.10
2014,10,11,09,23,13.10
2014,10,11,09,24,13.10
2014,10,11,09,25,13.00
2014,10,11,09,26,13.00
2014,10,11,09,27,13.00
2014,10,11,09,28,13.00
2014,10,11,09,29,12.90
2014,10,11,09,30,12.90
2014,10,11,09,31,12.90
2014,10,11,09,32,12.80
2014,10,11,09,33,12.80
2014,10,11,09,34,12.80
2014,10,11,09,35,12.80
2014,10,11,09,36,12.80
2014,10,11,09,37,12.80
2014,10,11,09,38,12.80
2014,10,11,09,39,12.80
2014,10,11,09,40,12.80
2014,10,11,09,41,12.80
2014,10,11,09,42,12.80
2014,10,11,09,43,12.80
2014,10,11,09,44,12.80
2014,10,11,09,45,12.80
2014,10,11,09,46,12.80
2014,10,11,09,47,12.80
2014,10,11,09,48,12.80
2014,10,11,09,49,12.70
2014,10,11,09,50,12.70
2014,10,11,09,51,12.70
2014,10,11,09,52,12.70
2014,10,11,09,53,12.80
2014,10,11,09,54,12.80
2014,10,11,09,55,12.80
2014,10,11,09,56,12.80
2014,10,11,09,57,12.90
2014,10,11,09,58,12.90
2014,10,11,09,59,13.00
2014,10,11,10,00,13.00
2014,10,11,10,01,13.00
2014,10,11,10,02,13.10
2014,10,11,10,03,13.10
2014,10,11,10,04,13.10
2014,10,11,10,05,13.10
2014,10,11,10,06,13.20
2014,10,11,10,07,13.20
2014,10,11,10,08,13.20
2014,10,11,10,09,13.20
2014,10,11,10,10,13.20
2014,10,11,10,11,13.30
2014,10,11,10,12,13.30
2014,10,11,10,13,13.30
2014,10,11,10,14,13.30
2014,10,11,10,15,13.40
2014,10,11,10,16,13.40
2014,10,11,10,17,13.40
2014,10,11,10,18,13.40
2014,10,11,10,19,13.40
2014,10,11,10,20,13.40
2014,10,11,10,21,13.40
2014,10,11,10,22,13.40
2014,10,11,10,23,13.40
2014,10,11,10,24,13.40
2014,10,11,10,25,13.40
2014,10,11,10,26,13.40
2014,10,11,10,27,13.40
2014,10,11,10,28,13.40
2014,10,11,10,29,13.40
2014,10,11,10,30,13.40
2014,10,11,10,31,13.40
2014,10,11,10,32,13.30
2014,10,11,10,33,13.30
2014,10,11,10,34,13.30
2014,10,11,10,35,13.30
2014,10,11,10,36,13.40
2014,10,11,10,37,13.40
2014,10,11,10,38,13.50
2014,10,11,10,39,13.50
2014,10,11,10,40,13.60
2014,10,11,10,41,13.70
2014,10,11,10,42,13.70
2014,10,11,10,43,13.70
2014,10,11,10,44,13.70
2014,10,11,10,45,13.70
2014,10,11,10,46,13.70
2014,10,11,10,47,13.70
2014,10,11,10,48,13.80
2014,10,11,10,49,13.80
2014,10,11,10,50,13.90
2014,10,11,10,51,14.00
2014,10,11,10,52,14.00
2014,10,11,10,53,13.90
2014,10,11,10,54,13.90
2014,10,11,10,55,14.00
2014,10,11,10,56,14.00
2014,10,11,10,57,14.00
2014,10,11,10,58,14.00
2014,10,11,10,59,14.10
2014,10,11,11,00,14.10
2014,10,11,11,01,14.10
2014,10,11,11,02,14.10
2014,10,11,11,03,14.10
2014,10,11,11,04,14.10
2014,10,11,11,05,14.10
2014,10,11,11,06,14.20
2014,10,11,11,07,14.20
2014,10,11,11,08,14.20
2014,10,11,11,09,14.20
2014,10,11,11,10,14.20
2014,10,11,11,11,14.20
2014,10,11,11,12,14.20
2014,10,11,11,13,14.20
2014,10,11,11,14,14.20
2014,10,11,11,15,14.20
2014,10,11,11,16,14.20
2014,10,11,11,17,14.20
2014,10,11,11,18,14.20
2014,10,11,11,19,14.10
2014,10,11,11,20,14.00
2014,10,11,11,21,14.00
2014,10,11,11,22,14.00
2014,10,11,11,23,13.90
2014,10,11,11,24,13.90
2014,10,11,11,25,13.90
2014,10,11,11,26,13.90
2014,10,11,11,27,13.90
2014,10,11,11,28,13.90
2014,10,11,11,29,13.90
2014,10,11,11,30,13.90
2014,10,11,11,31,13.90
2014,10,11,11,32,13.90
2014,10,11,11,33,13.80
2014,10,11,11,34,13.80
2014,10,11,11,35,13.80
2014,10,11,11,36,13.80
2014,10,11,11,37,13.80
2014,10,11,11,38,13.70
2014,10,11,11,39,13.70
2014,10,11,11,40,13.70
2014,10,11,11,41,13.70
2014,10,11,11,42,13.70
2014,10,11,11,43,13.70
2014,10,11,11,44,13.70
2014,10,11,11,45,13.70
2014,10,11,11,46,13.70
2014,10,11,11,47,13.70
2014,10,11,11,48,13.70
2014,10,11,11,49,13.70
2014,10,11,11,50,13.70
2014,10,11,11,51,13.70
2014,10,11,11,52,13.70
2014,10,11,11,53,13.70
2014,10,11,11,54,13.70
2014,10,11,11,55,13.70
2014,10,11,11,56,13.70
2014,10,11,11,57,13.70
2014,10,11,11,58,13.70
2014,10,11,11,59,13.70
2014,10,11,12,00,13.60
2014,10,11,12,01,13.70
2014,10,11,12,02,13.70
2014,10,11,12,03,13.70
2014,10,11,12,04,13.60
2014,10,11,12,05,13.60
2014,10,11,12,06,13.60
2014,10,11,12,07,13.60
2014,10,11,12,08,13.60
2014,10,11,12,09,13.70
2014,10,11,12,10,13.70
2014,10,11,12,11,13.70
2014,10,11,12,12,13.70
2014,10,11,12,13,13.80
2014,10,11,12,14,13.80
2014,10,11,12,15,13.90
2014,10,11,12,16,13.90
2014,10,11,12,17,14.00
2014,10,11,12,18,14.10
2014,10,11,12,19,14.10
2014,10,11,12,20,14.20
2014,10,11,12,21,14.20
2014,10,11,12,22,14.30
2014,10,11,12,23,14.40
2014,10,11,12,24,14.40
2014,10,11,12,25,14.50
2014,10,11,12,26,14.50
2014,10,11,12,27,14.60
2014,10,11,12,28,14.60
2014,10,11,12,29,14.60
2014,10,11,12,30,14.60
2014,10,11,12,31,14.60
2014,10,11,12,32,14.60
2014,10,11,12,33,14.70
2014,10,11,12,34,14.80
2014,10,11,12,35,14.90
2014,10,11,12,36,15.00
2014,10,11,12,37,15.00
2014,10,11,12,38,15.10
2014,10,11,12,39,15.20
2014,10,11,12,40,15.20
2014,10,11,12,41,15.20
2014,10,11,12,42,15.20
2014,10,11,12,43,15.20
2014,10,11,12,44,15.30
2014,10,11,12,45,15.30
2014,10,11,12,46,15.40
2014,10,11,12,47,15.40
2014,10,11,12,48,15.40
2014,10,11,12,49,15.50
2014,10,11,12,50,15.50
2014,10,11,12,51,15.50
2014,10,11,12,52,15.60
2014,10,11,12,53,15.60
2014,10,11,12,54,15.70
2014,10,11,12,55,15.70
2014,10,11,12,56,15.70
2014,10,11,12,57,15.70
2014,10,11,12,58,15.70
2014,10,11,12,59,15.70
2014,10,11,13,00,15.70
2014,10,11,13,01,15.60
2014,10,11,13,02,15.60
2014,10,11,13,03,15.60
2014,10,11,13,04,15.70
2014,10,11,13,05,15.70
2014,10,11,13,06,15.70
2014,10,11,13,07,15.80
2014,10,11,13,08,15.80
2014,10,11,13,09,15.80
2014,10,11,13,10,15.80
2014,10,11,13,11,15.80
2014,10,11,13,12,15.90
2014,10,11,13,13,15.90
2014,10,11,13,14,15.90
2014,10,11,13,15,15.90
2014,10,11,13,16,16.00
2014,10,11,13,17,16.00
2014,10,11,13,18,16.10
2014,10,11,13,19,16.20
2014,10,11,13,20,16.20
2014,10,11,13,21,16.20
2014,10,11,13,22,16.30
2014,10,11,13,23,16.30
2014,10,11,13,24,16.30
2014,10,11,13,25,16.40
2014,10,11,13,26,16.50
2014,10,11,13,27,16.50
2014,10,11,13,28,16.50
2014,10,11,13,29,16.40
2014,10,11,13,30,16.50
2014,10,11,13,31,16.50
2014,10,11,13,32,16.60
2014,10,11,13,33,16.60
2014,10,11,13,34,16.70
2014,10,11,13,35,16.70
2014,10,11,13,36,16.80
2014,10,11,13,37,16.80
2014,10,11,13,38,16.90
2014,10,11,13,39,16.90
2014,10,11,13,40,16.90
2014,10,11,13,41,17.00
2014,10,11,13,42,17.00
2014,10,11,13,43,17.10
2014,10,11,13,44,17.10
2014,10,11,13,45,17.10
2014,10,11,13,46,17.10
2014,10,11,13,47,17.20
2014,10,11,13,48,17.20
2014,10,11,13,49,17.20
2014,10,11,13,50,17.20
2014,10,11,13,51,17.30
2014,10,11,13,52,17.40
2014,10,11,13,53,17.40
2014,10,11,13,54,17.50
2014,10,11,13,55,17.70
2014,10,11,13,56,17.70
2014,10,11,13,57,17.70
2014,10,11,13,58,17.50
2014,10,11,13,59,17.40
2014,10,11,14,00,17.30
2014,10,11,14,01,17.20
2014,10,11,14,02,17.10
2014,10,11,14,03,17.10
2014,10,11,14,04,17.00
2014,10,11,14,05,16.90
2014,10,11,14,06,16.90
2014,10,11,14,07,16.80
2014,10,11,14,08,16.80
2014,10,11,14,09,16.80
2014,10,11,14,10,16.80
2014,10,11,14,11,16.70
2014,10,11,14,12,16.70
2014,10,11,14,13,16.70
2014,10,11,14,14,16.60
2014,10,11,14,15,16.60
2014,10,11,14,16,16.50
2014,10,11,14,17,16.50
2014,10,11,14,18,16.40
2014,10,11,14,19,16.40
2014,10,11,14,20,16.40
2014,10,11,14,21,16.40
2014,10,11,14,22,16.30
2014,10,11,14,23,16.30
2014,10,11,14,24,16.30
2014,10,11,14,25,16.20
2014,10,11,14,26,16.20
2014,10,11,14,27,16.20
2014,10,11,14,28,16.20
2014,10,11,14,29,16.20
2014,10,11,14,30,16.20
2014,10,11,14,31,16.10
2014,10,11,14,32,16.10
2014,10,11,14,33,16.10
2014,10,11,14,34,16.10
2014,10,11,14,35,16.10
2014,10,11,14,36,16.10
2014,10,11,14,37,16.10
2014,10,11,14,38,16.10
2014,10,11,14,39,16.10
2014,10,11,14,40,16.10
2014,10,11,14,41,16.10
2014,10,11,14,42,16.20
2014,10,11,14,43,16.20
2014,10,11,14,44,16.30
2014,10,11,14,45,16.40
2014,10,11,14,46,16.40
2014,10,11,14,47,16.50
2014,10,11,14,48,16.50
2014,10,11,14,49,16.60
2014,10,11,14,50,16.60
2014,10,11,14,51,16.70
2014,10,11,14,52,16.70
2014,10,11,14,53,16.70
2014,10,11,14,54,16.70
2014,10,11,14,55,16.80
2014,10,11,14,56,16.90
2014,10,11,14,57,16.90
2014,10,11,14,58,16.90
2014,10,11,14,59,16.90
2014,10,11,15,00,16.90
2014,10,11,15,01,16.90
2014,10,11,15,02,16.90
2014,10,11,15,03,16.90
2014,10,11,15,04,17.00
2014,10,11,15,05,17.10
2014,10,11,15,06,17.10
2014,10,11,15,07,17.20
2014,10,11,15,08,17.20
2014,10,11,15,09,17.10
2014,10,11,15,10,17.10
2014,10,11,15,11,17.10
2014,10,11,15,12,17.20
2014,10,11,15,13,17.10
2014,10,11,15,14,17.00
2014,10,11,15,15,16.90
2014,10,11,15,16,16.80
2014,10,11,15,17,16.70
2014,10,11,15,18,16.60
2014,10,11,15,19,16.50
2014,10,11,15,20,16.40
2014,10,11,15,21,16.30
2014,10,11,15,22,16.20
2014,10,11,15,23,16.20
2014,10,11,15,24,16.10
2014,10,11,15,25,16.10
2014,10,11,15,26,16.00
2014,10,11,15,27,15.90
2014,10,11,15,28,15.80
2014,10,11,15,29,15.80
2014,10,11,15,30,15.80
2014,10,11,15,31,15.90
2014,10,11,15,32,15.90
2014,10,11,15,33,15.90
2014,10,11,15,34,16.00
2014,10,11,15,35,16.00
2014,10,11,15,36,15.90
2014,10,11,15,37,15.90
2014,10,11,15,38,15.80
2014,10,11,15,39,15.80
2014,10,11,15,40,15.90
2014,10,11,15,41,15.80
2014,10,11,15,42,15.90
2014,10,11,15,43,15.90
2014,10,11,15,44,15.90
2014,10,11,15,45,16.00
2014,10,11,15,46,16.00
2014,10,11,15,47,16.00
2014,10,11,15,48,15.90
2014,10,11,15,49,15.90
2014,10,11,15,50,15.90
2014,10,11,15,51,16.00
2014,10,11,15,52,16.00
2014,10,11,15,53,16.10
2014,10,11,15,54,16.10
2014,10,11,15,55,16.10
2014,10,11,15,56,16.10
2014,10,11,15,57,16.00
2014,10,11,15,58,15.90
2014,10,11,15,59,15.80
2014,10,11,16,00,15.80
2014,10,11,16,01,15.70
2014,10,11,16,02,15.70
2014,10,11,16,03,15.70
2014,10,11,16,04,15.70
2014,10,11,16,05,15.60
2014,10,11,16,06,15.60
2014,10,11,16,07,15.50
2014,10,11,16,08,15.40
2014,10,11,16,09,15.40
2014,10,11,16,10,15.30
2014,10,11,16,11,15.30
2014,10,11,16,12,15.30
2014,10,11,16,13,15.30
2014,10,11,16,14,15.30
2014,10,11,16,15,15.20
2014,10,11,16,16,15.20
2014,10,11,16,17,15.00
2014,10,11,16,18,15.00
2014,10,11,16,19,15.00
2014,10,11,16,20,15.00
2014,10,11,16,21,15.00
2014,10,11,16,22,15.00
2014,10,11,16,23,15.00
2014,10,11,16,24,15.00
2014,10,11,16,25,15.00
2014,10,11,16,26,15.00
2014,10,11,16,27,15.00
2014,10,11,16,28,15.10
2014,10,11,16,29,15.10
2014,10,11,16,30,15.10
2014,10,11,16,31,15.20
2014,10,11,16,32,15.20
2014,10,11,16,33,15.30
2014,10,11,16,34,15.30
2014,10,11,16,35,15.30
2014,10,11,16,36,15.30
2014,10,11,16,37,15.30
2014,10,11,16,38,15.30
2014,10,11,16,39,15.30
2014,10,11,16,40,15.30
2014,10,11,16,41,15.20
2014,10,11,16,42,15.20
2014,10,11,16,43,15.20
2014,10,11,16,44,15.10
2014,10,11,16,45,15.00
2014,10,11,16,46,15.00
2014,10,11,16,47,15.00
2014,10,11,16,48,15.00
2014,10,11,16,49,15.00
2014,10,11,16,50,15.00
2014,10,11,16,51,15.00
2014,10,11,16,52,15.00
2014,10,11,16,53,15.00
2014,10,11,16,54,15.00
2014,10,11,16,55,15.00
2014,10,11,16,56,15.00
2014,10,11,16,57,15.00
2014,10,11,16,58,15.00
2014,10,11,16,59,15.00
2014,10,11,17,00,14.90
2014,10,11,17,01,14.90
2014,10,11,17,02,14.90
2014,10,11,17,03,14.90
2014,10,11,17,04,14.90
2014,10,11,17,05,14.90
2014,10,11,17,06,15.00
2014,10,11,17,07,15.00
2014,10,11,17,08,15.00
2014,10,11,17,09,15.00
2014,10,11,17,10,15.00
2014,10,11,17,11,15.00
2014,10,11,17,12,15.00
2014,10,11,17,13,15.00
2014,10,11,17,14,15.00
2014,10,11,17,15,15.00
2014,10,11,17,16,15.00
2014,10,11,17,17,15.10
2014,10,11,17,18,15.10
2014,10,11,17,19,15.20
2014,10,11,17,20,15.20
2014,10,11,17,21,15.20
2014,10,11,17,22,15.30